Tracking 32936 objects as of 17-Jan-2026
HD Live streaming from Space Station
objects crossing your sky now

DMSP 5D-2 F13 DEB

Track DMSP 5D-2 F13 DEB now!
10-day predictions


NORAD ID: 40438
Int'l Code: 1995-015AQ
Perigee: 491.7 km
Apogee: 498.9 km
Inclination: 98.8 °
Period: 94.4 minutes
Semi major axis: 6866 km
RCS: Unknown
Launch date: March 24, 1995
Source: United States (US)
Launch site: AIR FORCE WESTERN TEST RANGE (AFWTR)

Note: This is SATELLITE DEBRIS
Your satellite tracking list
Your tracking list is empty




NASA's NSSDC Master Catalog

Two Line Element Set (TLE):
1 40438U 95015AQ  26007.90911663  .00347513  00000-0  12950-1 0  9990
2 40438  98.8383  72.6834 0005241 247.4307 112.6373 15.25880483564483
Source of the keplerian elements: AFSPC